Stations météo

Publicité
Troyes, France (7168): Température de l'air & dewpoint: 26.10.2020 00:00:00 - 01.11.2020 00:00:00 (CET)Troyes, France (7168): Température de l'air 5cm: 26.10.2020 00:00:00 - 01.11.2020 00:00:00 (CET)Troyes, France (7168): Température de l'air -20cm & Température de l'air -100cm: 26.10.2020 00:00:00 - 01.11.2020 00:00:00 (CET)Troyes, France (7168): Vitesse du vent & gusts: 26.10.2020 00:00:00 - 01.11.2020 00:00:00 (CET)Troyes, France (7168): Direction du vent: 26.10.2020 00:00:00 - 01.11.2020 00:00:00 (CET)Troyes, France (7168): reduced air pressure: 26.10.2020 00:00:00 - 01.11.2020 00:00:00 (CET)Troyes, France (7168): visibility: 26.10.2020 00:00:00 - 01.11.2020 00:00:00 (CET)Troyes, France (7168): Ensoleillement: 26.10.2020 00:00:00 - 01.11.2020 00:00:00 (CET)Troyes, France (7168): Quantités de précipitations: 26.10.2020 00:00:00 - 01.11.2020 00:00:00 (CET)
Date & Time tt [°C] td [°C] tt 5cm [°C] tt -20cm [°C] tt -100cm [°C] ff [km/h] ff [knt] fx [km/h] fx [knt] dd ppp [hPa] vv [km] sd [min] rr [mm]
01.11.2020 00:00:00 16,6 11,3 - - - 16 9 28 15 SSW 1018,3 20 - 0,0
31.10.2020 23:00:00 16,8 10,6 15,9 13,3 14,6 19 10 27 15 SSW 1018,4 20 0 0,0
31.10.2020 22:00:00 16,6 10,2 14,4 13,3 14,7 17 9 26 14 SSW 1018,4 20 0 0,0
31.10.2020 21:00:00 15,4 10,2 13,9 13,3 14,7 18 10 27 15 S 1018,0 20 0 0,0
31.10.2020 20:00:00 15,6 9,9 14,4 13,3 14,7 16 8 21 11 S 1018,2 20 0 0,0
31.10.2020 19:00:00 16,0 10,1 14,8 13,3 14,7 16 9 27 14 S 1018,6 20 0 0,0
31.10.2020 18:00:00 16,4 10,0 14,8 13,2 14,7 18 10 26 14 S 1018,2 20 0 0,0
31.10.2020 17:00:00 16,2 10,5 15,1 13,0 14,7 16 9 24 13 S 1018,5 20 0 0,0
31.10.2020 16:00:00 18,0 10,8 17,2 12,9 14,7 18 10 34 18 S 1018,6 20 52 0,0
31.10.2020 15:00:00 18,6 10,7 19,3 12,8 14,6 24 13 40 21 SSW 1018,9 20 60 0,0
31.10.2020 14:00:00 18,4 11,0 19,5 12,7 14,7 21 11 31 17 S 1019,2 20 60 0,0
31.10.2020 13:00:00 17,3 10,9 19,8 12,7 14,7 18 10 29 16 S 1019,9 20 60 0,0
31.10.2020 12:00:00 16,0 11,2 17,7 12,7 14,7 15 8 24 13 SSE 1020,5 20 60 0,0
31.10.2020 11:00:00 14,2 9,8 14,0 12,8 14,7 20 11 32 17 S 1021,4 20 60 0,0
31.10.2020 10:00:00 11,3 8,5 10,0 12,8 14,7 18 10 26 14 SSE 1021,8 20 60 0,0
31.10.2020 09:00:00 9,3 7,7 4,4 13,0 14,7 13 7 19 11 SE 1022,4 20 60 0,0
31.10.2020 08:00:00 5,3 4,7 3,8 13,1 14,7 8 4 15 8 S 1022,8 7 7 0,2
31.10.2020 07:00:00 5,9 5,3 2,9 13,2 14,7 7 4 14 7 SSE 1023,1 6 0 0,0
31.10.2020 06:00:00 5,2 4,6 2,0 13,3 14,7 9 5 11 6 S 1023,6 1,9 0 0,0
31.10.2020 05:00:00 7,6 6,8 3,2 13,3 14,7 5 3 8 5 SE 1023,9 0,9 0 0,0
31.10.2020 04:00:00 7,4 7,0 2,8 13,4 14,7 0 0 8 4 N 1024,6 0,2 0 0,0
31.10.2020 03:00:00 7,4 6,2 4,1 13,4 14,7 6 3 9 5 S 1024,7 2,9 0 0,0
31.10.2020 02:00:00 10,5 9,3 9,0 13,4 14,7 6 3 8 4 S 1024,8 20 0 0,0
31.10.2020 01:00:00 12,0 10,2 11,3 13,4 14,7 4 2 8 5 S 1025,4 20 0 0,0
31.10.2020 00:00:00 12,5 10,6 11,9 13,4 14,7 3 2 9 5 SSE 1025,7 20 0 0,0
30.10.2020 23:00:00 12,4 10,5 11,9 13,4 14,7 6 3 9 5 S 1026,3 20 0 0,0
30.10.2020 22:00:00 12,5 10,4 12,0 13,4 14,7 6 3 10 5 S 1026,1 20 0 0,0
30.10.2020 21:00:00 12,7 10,2 12,1 13,5 14,7 5 3 11 6 S 1026,1 20 0 0,0
30.10.2020 20:00:00 12,9 10,1 12,2 13,4 14,7 9 5 13 7 S 1026,3 20 0 0,0
30.10.2020 19:00:00 13,0 10,0 12,4 13,4 14,7 9 5 15 8 S 1026,3 20 0 0,0
30.10.2020 18:00:00 13,4 9,8 12,7 13,4 14,7 9 5 13 7 SSW 1025,8 20 0 0,0
30.10.2020 17:00:00 14,1 9,9 13,7 13,3 14,7 10 5 16 9 SSW 1025,8 20 0 0,0
30.10.2020 16:00:00 14,7 9,9 14,5 13,3 14,7 10 6 23 12 SW 1025,9 20 0 0,0
30.10.2020 15:00:00 15,1 10,1 15,2 13,2 14,7 13 7 22 12 SW 1025,7 20 0 0,0
30.10.2020 14:00:00 15,2 11,0 15,2 13,2 14,7 13 7 24 13 SW 1025,7 20 0 0,0
30.10.2020 13:00:00 14,9 11,1 15,0 13,2 14,7 15 8 24 13 SSW 1025,8 20 0 0,0
30.10.2020 12:00:00 14,7 11,3 14,6 13,1 14,7 15 8 24 13 SSW 1025,9 20 0 0,0
30.10.2020 11:00:00 14,5 11,3 13,6 13,1 14,7 16 9 24 13 SSW 1025,7 20 - 0,0
30.10.2020 10:00:00 14,0 10,8 12,7 13,1 14,7 18 10 26 14 SSW 1025,4 20 - 0,0
30.10.2020 09:00:00 13,3 10,7 12,3 13,1 14,7 15 8 22 12 S 1025,2 20 - 0,0
30.10.2020 08:00:00 13,0 10,5 12,2 13,1 14,7 15 8 23 12 S 1024,9 20 - 0,0
30.10.2020 07:00:00 13,0 10,5 12,2 13,1 14,7 16 9 24 13 SSW 1024,5 20 - 0,0
30.10.2020 06:00:00 13,1 11,0 12,3 13,1 14,7 18 10 26 14 SSW 1024,3 20 - 0,0
30.10.2020 05:00:00 13,0 11,4 12,3 13,1 14,8 16 9 20 11 S 1024,3 20 - 0,2
30.10.2020 04:00:00 13,0 11,7 12,5 13,1 14,7 14 7 29 16 SSW 1024,2 4,7 - 0,0
30.10.2020 03:00:00 13,4 11,6 12,6 13,1 14,7 15 8 30 16 SW 1023,9 13 - 0,0
30.10.2020 02:00:00 13,9 11,6 13,4 13,1 14,7 22 12 33 18 SSW 1023,4 20 - 0,0
30.10.2020 01:00:00 13,9 11,8 13,2 13,1 14,8 15 8 31 17 SW 1023,7 20 - 0,0
30.10.2020 00:00:00 13,9 11,9 13,2 13,1 14,8 24 13 36 19 SSW 1023,3 20 0 0,0
29.10.2020 23:00:00 14,3 11,8 13,2 13,1 14,8 23 13 34 18 SSW 1023,2 20 0 0,0
29.10.2020 22:00:00 14,2 11,9 13,3 13,1 14,8 21 11 34 18 SSW 1023,5 20 0 0,0
29.10.2020 21:00:00 13,8 11,3 12,6 13,0 14,8 20 11 29 16 S 1023,0 20 0 0,0
29.10.2020 20:00:00 13,3 11,2 12,3 13,0 14,8 16 9 22 12 S 1022,7 20 0 0,0
29.10.2020 19:00:00 12,9 11,0 12,2 13,0 14,8 16 9 20 11 S 1022,4 20 0 0,0
29.10.2020 18:00:00 12,9 11,0 11,9 13,0 14,8 14 8 21 11 S 1022,4 20 0 0,0
29.10.2020 17:00:00 13,0 11,1 12,2 12,9 14,8 14 7 21 12 SSW 1022,3 20 0 0,0
29.10.2020 16:00:00 12,4 11,3 11,8 12,9 14,8 9 5 18 10 SSW 1022,5 20 0 0,2
29.10.2020 15:00:00 12,1 10,8 11,9 12,8 14,8 17 9 28 15 W 1022,8 5 0 0,4
29.10.2020 14:00:00 12,9 10,6 12,4 12,7 14,8 22 12 41 22 WSW 1022,7 10 0 0,0
29.10.2020 13:00:00 14,4 9,8 13,7 12,7 14,8 28 15 42 23 SW 1022,2 20 0 0,0
29.10.2020 12:00:00 13,4 9,6 13,5 12,7 14,8 21 11 35 19 SW 1022,7 19 0 0,0
29.10.2020 11:00:00 13,3 9,7 13,0 12,7 14,8 23 13 39 21 SW 1022,5 20 0 0,0
29.10.2020 10:00:00 12,8 9,8 12,3 12,7 14,8 26 14 41 22 WSW 1022,0 20 45 0,0
29.10.2020 09:00:00 12,2 9,4 10,3 12,7 14,8 28 15 39 21 WSW 1021,3 20 24 0,0
29.10.2020 08:00:00 11,4 9,1 9,5 12,7 14,8 22 12 34 18 WSW 1020,5 20 0 0,0
29.10.2020 07:00:00 11,5 8,4 10,0 12,8 14,8 21 11 35 19 WSW 1019,7 20 0 0,0
29.10.2020 06:00:00 11,9 9,5 10,7 12,7 14,8 25 14 40 22 WSW 1019,1 20 0 0,0
29.10.2020 05:00:00 12,2 9,2 10,8 12,7 14,8 27 15 54 29 WSW 1018,1 20 0 0,2
29.10.2020 04:00:00 12,1 9,7 10,9 12,8 14,8 28 15 50 27 WSW 1017,4 12 0 0,0
29.10.2020 03:00:00 12,2 9,9 10,9 12,8 14,8 27 15 45 24 SW 1016,7 11 0 0,6
29.10.2020 02:00:00 12,6 9,6 11,1 12,8 14,8 23 12 47 26 SW 1016,8 14 0 0,2
29.10.2020 01:00:00 13,1 9,0 12,1 12,9 14,9 28 15 45 25 SW 1016,2 20 0 0,0
29.10.2020 00:00:00 13,0 8,9 12,1 12,8 14,8 30 16 49 26 SW 1015,9 20 0 0,0
28.10.2020 23:00:00 12,9 8,6 12,2 12,9 14,8 31 17 53 29 SW 1015,4 20 0 0,0
28.10.2020 22:00:00 13,3 8,6 12,2 12,9 14,8 36 19 59 32 SW 1014,9 20 0 0,0
28.10.2020 21:00:00 13,2 8,9 12,2 12,9 14,8 34 18 54 29 SW 1014,6 20 0 0,0
28.10.2020 20:00:00 13,2 8,7 12,2 12,9 14,9 30 16 45 25 SW 1014,0 20 0 0,0
28.10.2020 19:00:00 12,9 8,6 12,3 12,9 14,9 31 17 49 27 SSW 1013,8 20 0 0,0
28.10.2020 18:00:00 13,5 9,0 12,6 12,9 14,9 28 15 46 25 SSW 1013,6 20 0 0,0
28.10.2020 17:00:00 13,5 8,3 12,9 12,8 14,9 21 11 30 16 SSW 1014,0 20 0 0,0
28.10.2020 16:00:00 13,8 8,0 13,3 12,8 14,9 20 11 35 19 S 1013,9 20 0 0,0
28.10.2020 15:00:00 14,2 8,4 14,2 12,7 14,9 22 12 42 23 SSW 1013,9 20 0 0,0
28.10.2020 14:00:00 14,2 7,9 14,2 12,7 14,9 28 15 43 23 SSW 1014,3 20 0 0,0
28.10.2020 13:00:00 14,1 8,5 13,9 12,6 14,9 27 14 44 24 SSW 1014,9 20 5 0,0
28.10.2020 12:00:00 13,4 9,3 13,5 12,6 14,9 24 13 34 18 SSW 1014,9 20 6 0,0
28.10.2020 11:00:00 13,2 9,6 12,7 12,6 14,9 20 11 36 20 SW 1014,8 20 9 0,0
28.10.2020 10:00:00 13,0 9,4 11,5 12,6 14,9 20 11 32 18 SSW 1014,4 20 41 0,0
28.10.2020 09:00:00 11,9 9,1 10,0 12,7 14,9 24 13 39 21 SW 1013,7 20 21 0,0
28.10.2020 08:00:00 10,4 8,2 9,2 12,7 14,9 14 8 39 21 SW 1012,9 20 12 0,0
28.10.2020 07:00:00 11,5 7,0 10,2 12,6 14,9 24 13 39 21 WSW 1011,7 20 0 0,0
28.10.2020 06:00:00 12,0 9,9 10,5 12,7 14,9 23 12 34 19 SW 1010,7 20 0 0,0
28.10.2020 05:00:00 12,5 10,6 11,6 12,7 15,0 19 11 29 16 SW 1010,2 20 0 0,0
28.10.2020 04:00:00 12,6 11,0 11,5 12,7 15,0 14 8 39 21 SSW 1009,3 20 0 0,0
28.10.2020 03:00:00 11,9 11,1 11,5 12,6 14,9 16 9 31 17 S 1009,3 6 0 0,6
28.10.2020 02:00:00 12,0 10,9 11,4 12,6 15,0 23 12 37 20 SSW 1009,1 2,5 0 0,2
28.10.2020 01:00:00 12,3 10,9 11,4 12,6 14,9 28 15 48 26 SSW 1008,6 7 0 0,2
28.10.2020 00:00:00 12,3 10,5 11,5 12,6 15,0 27 14 44 24 S 1008,5 20 0 0,0
27.10.2020 23:00:00 12,3 10,2 11,7 12,7 15,0 33 18 45 25 S 1008,1 20 0 0,0
27.10.2020 22:00:00 12,0 10,1 10,9 12,7 15,0 29 16 49 26 S 1008,2 20 0 0,0
27.10.2020 21:00:00 11,8 9,7 10,4 12,6 15,0 34 18 56 30 S 1007,6 20 0 0,0
27.10.2020 20:00:00 11,0 9,6 10,2 12,6 15,0 31 17 48 26 S 1007,5 6 0 0,2
27.10.2020 19:00:00 10,8 9,4 10,0 12,6 15,0 27 15 46 25 S 1007,7 17 0 0,0
27.10.2020 18:00:00 11,2 8,9 10,1 12,6 15,0 35 19 56 30 S 1007,6 17 0 0,0
27.10.2020 17:00:00 12,1 8,4 10,6 12,6 15,0 31 17 48 26 S 1007,8 20 0 0,2
27.10.2020 16:00:00 12,0 8,7 10,3 12,5 15,0 30 16 49 26 S 1008,4 20 0 0,0
27.10.2020 15:00:00 12,1 8,0 11,8 12,4 15,0 29 16 40 22 S 1008,9 20 0 0,0
27.10.2020 14:00:00 12,2 7,7 12,2 12,4 15,0 26 14 41 22 S 1009,5 20 0 0,0
27.10.2020 13:00:00 12,1 8,0 12,7 12,4 15,0 27 14 39 21 S 1010,3 20 8 0,0
27.10.2020 12:00:00 11,4 7,5 11,7 12,4 15,0 25 14 42 23 S 1010,8 20 6 0,0
27.10.2020 11:00:00 10,7 7,2 10,7 12,4 15,0 25 14 36 20 S 1011,1 20 4 0,0
27.10.2020 10:00:00 10,1 7,0 9,7 12,4 15,0 24 13 34 19 SSW 1010,9 20 11 0,0
27.10.2020 09:00:00 9,4 6,5 8,4 12,5 15,0 23 13 33 18 SSW 1010,6 20 54 0,0
27.10.2020 08:00:00 8,5 6,5 6,9 12,5 15,0 12 7 25 13 SSW 1010,7 20 13 0,0
27.10.2020 07:00:00 7,9 5,9 6,9 12,6 15,0 16 9 25 13 SSW 1010,0 20 0 0,0
27.10.2020 06:00:00 8,7 6,5 8,0 12,6 15,0 15 8 26 14 SSW 1009,6 20 0 0,0
27.10.2020 05:00:00 8,7 6,7 7,9 12,7 15,0 14 8 31 17 SW 1009,1 20 0 0,0
27.10.2020 04:00:00 8,9 7,0 7,4 12,7 15,0 16 8 30 16 SW 1008,9 20 0 0,0
27.10.2020 03:00:00 9,4 7,0 8,8 12,8 15,0 20 11 28 15 SW 1008,8 20 0 0,0
27.10.2020 02:00:00 9,4 7,3 8,6 12,8 15,0 18 10 31 17 SSW 1008,7 20 0 0,0
27.10.2020 01:00:00 9,2 7,3 7,5 12,9 15,0 19 10 27 14 SW 1008,6 20 0 0,0
27.10.2020 00:00:00 8,4 6,7 6,5 13,0 15,0 11 6 19 10 S 1008,8 20 0 0,0
26.10.2020 23:00:00 8,6 6,6 6,8 13,1 15,0 13 7 26 14 SSW 1008,7 20 0 0,2
26.10.2020 22:00:00 8,3 6,1 6,7 13,2 15,0 18 10 24 13 SSW 1008,5 20 0 0,0
26.10.2020 21:00:00 8,2 6,0 5,3 13,2 15,0 12 6 17 9 S 1008,1 20 0 0,0
26.10.2020 20:00:00 6,7 5,0 5,4 13,3 15,0 13 7 19 11 S 1008,0 20 0 0,0
26.10.2020 19:00:00 6,9 5,4 5,7 13,3 15,0 13 7 16 9 SSW 1007,7 20 0 0,0
26.10.2020 18:00:00 8,6 6,0 6,9 13,2 15,0 13 7 32 18 SW 1006,8 20 0 0,4
26.10.2020 17:00:00 11,2 5,7 10,1 13,2 15,0 14 8 32 17 SW 1006,4 20 48 0,0
26.10.2020 16:00:00 13,6 5,5 13,3 13,0 15,0 24 13 42 23 SW 1006,2 20 53 0,0
26.10.2020 15:00:00 14,1 5,7 15,4 13,0 15,0 28 15 46 25 SW 1006,0 20 54 0,0
26.10.2020 14:00:00 13,9 5,8 13,1 12,9 15,0 30 16 42 23 SW 1005,7 20 44 0,0
26.10.2020 13:00:00 12,9 6,5 12,7 12,9 15,0 24 13 49 26 WSW 1006,1 10 32 0,0
26.10.2020 12:00:00 12,2 7,1 11,1 12,9 15,0 22 12 40 21 WSW 1006,6 20 15 0,0
26.10.2020 11:00:00 12,2 7,5 11,9 13,0 15,0 24 13 43 23 SW 1006,7 20 48 0,0
26.10.2020 10:00:00 11,0 7,9 9,5 13,0 15,0 27 14 37 20 SW 1007,0 20 60 0,2
26.10.2020 09:00:00 9,0 7,3 5,7 13,1 15,0 18 10 23 13 SSW 1007,2 20 6 0,0
26.10.2020 08:00:00 6,9 5,8 5,4 13,2 15,0 12 6 15 8 S 1006,9 20 0 0,0
26.10.2020 07:00:00 8,1 6,9 6,8 13,2 15,0 11 6 18 10 S 1005,9 20 0 0,0
26.10.2020 06:00:00 8,7 7,3 7,7 13,3 15,0 15 8 18 10 S 1005,7 20 0 0,0
26.10.2020 05:00:00 9,3 7,9 7,6 13,3 15,0 8 4 14 8 SSW 1005,0 20 0 0,0
26.10.2020 04:00:00 9,4 8,2 6,9 13,4 15,1 10 5 16 8 SSW 1004,8 20 0 0,0
26.10.2020 03:00:00 9,2 7,6 8,2 13,4 15,0 9 5 14 8 S 1005,0 20 0 0,0
26.10.2020 02:00:00 9,4 7,8 8,4 13,5 15,0 9 5 18 10 S 1004,7 20 0 0,0
26.10.2020 01:00:00 9,9 8,0 8,9 13,5 15,0 13 7 24 13 SW 1003,9 20 0 0,0
26.10.2020 00:00:00 10,4 8,3 9,3 13,5 15,0 13 7 25 13 SW 1004,3 20 0 0,0

tt = Température de l'air
td = dewpoint
tt 5cm = Température de l'air 5cm
tt -20cm = Température de l'air -20cm
tt -100cm = Température de l'air -100cm
ff = Vitesse du vent
fx = gusts
dd = Direction du vent
ppp = reduced air pressure
vv = visibility
sd = Ensoleillement
rr = Quantités de précipitations

stations d'obs. à proximité